Regional Weather Roundup
Issued by NWS

Home | Current Version | Previous Version | Graphics & Text | Print | Product List | Glossary On
Versions: 1 2 3 4 5 6 7 8 9 10 11 12 13 14 15 16 17 18 19 20 21 22 23 24 25 26 27 28 29 30 31 32 33 34 35 36 37 38 39 40 41 42 43 44 45 46 47 48 49 50
503
ASUS43 KFSD 210110
RWRSD

WEATHER ROUNDUP FOR SOUTH DAKOTA
NATIONAL WEATHER SERVICE SIOUX FALLS SD
800 PM CDT FRI OCT 20 2017

NOTE: "FAIR" INDICATES FEW OR NO CLOUDS BELOW 12,000 FEET WITH NO
SIGNIFICANT WEATHER AND/OR OBSTRUCTIONS TO VISIBILITY.


SDZ001>005-009-010-012>017-210200-
NORTHWEST AND NORTH CENTRAL SOUTH DAKOTA

CITY           SKY/WX    TMP DP  RH WIND       PRES   REMARKS
BUFFALO          N/A     68  35  29 S12       29.21R
FAITH            N/A     69  45  41 S16       29.29S
MOBRIDGE       CLEAR     69  53  56 SE17G26   29.31R
$$

SDZ012>016-024>037-041>051-057-063-072>074-210200-
SOUTHWEST AND SOUTH CENTRAL SOUTH DAKOTA

CITY           SKY/WX    TMP DP  RH WIND       PRES   REMARKS
RAPID CTY ARPT CLOUDY    64  36  35 VRB5      29.34S
PIERRE         CLEAR     66  54  65 SE13      29.38S
CUSTER         CLOUDY    62  27  26 SW5       29.48F
ELLSWORTH AFB  CLOUDY    68  32  26 W5        29.34R
PHILIP         CLEAR     68  51  54 S15       29.33S
PINE RIDGE     CLEAR     69  46  43 S15G23    29.41S
SPEARFISH      FAIR      70  30  23 SW10      29.36S
WINNER         FAIR      68  53  58 S12       29.43S
$$

SDZ004>011-016>023-039-040-210200-
NORTHEAST SOUTH DAKOTA

CITY           SKY/WX    TMP DP  RH WIND       PRES   REMARKS
ABERDEEN       CLOUDY    70  55  59 S20       29.41F
WATERTOWN      PTCLDY    66  55  67 S20       29.51F
BROOKINGS      MOCLDY    69  57  65 S26G33    29.55F
SISSETON         N/A     71  55  56 S16       29.47S
$$

SDZ017-020-022-023-036>040-048>070-210200-
SOUTHEAST SOUTH DAKOTA

CITY           SKY/WX    TMP DP  RH WIND       PRES   REMARKS
SIOUX FALLS    CLOUDY    71  59  65 S18G28    29.58F
HURON          PTCLDY    70  56  61 SE13G21   29.45F
CHAMBERLAIN    CLEAR     69  55  62 S10       29.44R
MITCHELL       CLOUDY    72  57  59 S20       29.49F
YANKTON        CLEAR     72  59  63 S17G28    29.56R
$$

ABBREVIATIONS USED IN REMARKS
   TC - TEMPERATURE IN CELSIUS
  WCI - WIND CHILL INDEX
   HX - HEAT INDEX
  VSB - VISIBILITY





USA.gov is the U.S. government's official web portal to all federal, state and local government web resources and services.